This is the latest recevied weather packets stored in our database for station/object CYYJ. If no packets are shown the sender has not sent any weather packets the latest 1 day(s).
| Time | Temp. | Humidity | Pressure | Rain* | Wind** | Luminosity | Snow |
|---|---|---|---|---|---|---|---|
| 1778078003 | 10.56° C | 93% | 1017.6 hPa | - | - | - | - |
| 1778077399 | 10.56° C | 93% | 1017.6 hPa | - | - | - | - |
| 1778076800 | 10.56° C | 93% | 1017.6 hPa | - | - | - | - |
| 1778075601 | 8.89° C | 100% | 1017.3 hPa | - | - | - | - |
| 1778075000 | 8.89° C | 100% | 1017.3 hPa | - | - | - | - |
| 1778070800 | 10.56° C | 93% | 1016.6 hPa | - | - | - | - |
| 1778069601 | 10.56° C | 93% | 1016.6 hPa | - | - | - | - |
| 1778067801 | 10.56° C | 93% | 1015.9 hPa | - | - | - | - |
| 1778067199 | 10.56° C | 93% | 1015.9 hPa | - | - | - | - |
| 1778064801 | 10.56° C | 100% | 1015.6 hPa | - | - | - | - |
| 1778063601 | 10.56° C | 100% | 1015.6 hPa | - | - | - | - |
| 1778061204 | 10.56° C | 100% | 1015.2 hPa | - | - | - | - |
| 1778059401 | 10.56° C | 100% | 1015.2 hPa | - | - | - | - |
| 1778058204 | 10° C | 99% | 1014.9 hPa | - | - | - | - |
| 1778057604 | 10° C | 99% | 1014.9 hPa | - | - | - | - |
| 1778057006 | 10° C | 99% | 1014.9 hPa | - | - | - | - |
| 1778055199 | 10° C | 99% | 1014.9 hPa | - | - | - | - |
| 1778054600 | 10.56° C | 100% | 1014.6 hPa | - | - | - | - |
| 1778053402 | 10.56° C | 100% | 1014.6 hPa | - | - | - | - |
| 1778052801 | 10.56° C | 100% | 1014.6 hPa | - | - | - | - |
| 1778052201 | 10.56° C | 100% | 1014.6 hPa | - | - | - | - |
| 1778051602 | 10.56° C | 100% | 1014.6 hPa | - | - | - | - |
| 1778049799 | 10.56° C | 100% | 1013.9 hPa | - | - | - | - |
| 1778049206 | 10.56° C | 100% | 1013.9 hPa | - | - | - | - |
| 1778046801 | 11.67° C | 93% | 1013.9 hPa | - | - | - | - |
* Rain since midnight (hover to see other rain measurements)
** Current wind speed in m/s (hover to see current wind gust speed)